Location: Stockholm
(59.3333°N, 18.0500°E)
Time: 15:21:33
(UTC+02:00)

ISS - Pass Details

Date: 09 May 2019
Orbit: 407 x 410 km, 51.6° (Epoch: 20 May)

Event Time Altitude Azimuth Distance (km) Brightness Sun altitude
Exits shadow 02:36:19 11° 173° (S) 1,404 -1.6 -10.1°
Maximum altitude 02:37:20 13° 154° (SSE) 1,335 -1.6 -10.0°
Drops below altitude 10° 02:38:48 10° 127° (SE) 1,479 -1.1 -9.9°
Sets 02:41:50 0° 97° (E) 2,344 0.3 -9.8°
